Weather History for Wheeler AAF, HI

Change the Weather History Date:

Friday, January 17, 2014

  Actual Average Record
Temperature  
Mean Temperature 68 °F -  
Max Temperature 75 °F 74 °F 82 °F (2001)
Min Temperature 62 °F 61 °F 53 °F (2003)
Cooling Degree Days 4    
Growing Degree Days 18 (Base 50)    
Moisture  
Dew Point 65 °F    
Average Humidity 82    
Maximum Humidity 95    
Minimum Humidity 67    
Precipitation  
Precipitation 0.00 in - - ()
Sea Level Pressure  
Sea Level Pressure 30.00 in    
Wind  
Wind Speed 4 mph (NNW)    
Max Wind Speed 12 mph    
Max Gust Speed -    
Visibility 10 miles    
Events Rain    
Averages and records for this station are not official NWS values.
T = Trace of Precipitation, MM = Missing Value Source: NWS Daily Summary

Daily Weather History Graph

Daily Weather History Graph

Search for Another Location

Airport:

Trip Planner

Search our weather history database for the weather conditions in past years. The results will help you decide how hot, cold, wet, or windy it might be!

Date:

Astronomy

Jan. 17, 2014 Rise Set
Actual Time 7:12 AM HST 6:12 PM HST
Civil Twilight 6:48 AM HST 6:36 PM HST
Nautical Twilight 6:21 AM HST 7:03 PM HST
Astronomical Twilight 5:54 AM HST 7:30 PM HST
Moon 7:50 PM HST (1/17) 8:03 AM HST (1/17)
Length of Visible Light 11h 47m
Length of Day
10h 59m
Full, 97% of the Moon is Illuminated
Jan 17
Full
Jan 23
Last Quarter
Jan 30
New
Feb 6
First Quarter
Feb 14
Full

Hourly Weather History & Observations

Time (HST) Temp. Dew Point Humidity Pressure Visibility Wind Dir Wind Speed Gust Speed Precip Events Conditions
12:58 AM 64.9 °F 61.7 °F 89% 29.97 in 10.0 mi WNW 5.8 mph - N/A   Clear
1:58 AM 65.5 °F 62.4 °F 90% 29.96 in 10.0 mi NW 4.6 mph - N/A   Mostly Cloudy
2:43 AM 66.2 °F 62.6 °F 88% 29.98 in 10.0 mi NW 4.6 mph - N/A   Overcast
2:58 AM 66.2 °F 62.6 °F 88% 29.96 in 10.0 mi NW 4.6 mph - N/A   Overcast
3:58 AM 66.2 °F 62.6 °F 88% 29.95 in 10.0 mi NW 2.3 mph - N/A   Scattered Clouds
4:58 AM 63.7 °F 61.3 °F 92% 29.95 in 10.0 mi NNW 2.3 mph - N/A   Clear
5:58 AM 63.3 °F 61.3 °F 93% 29.96 in 10.0 mi NW 3.5 mph - N/A   Clear
6:58 AM 62.1 °F 60.1 °F 93% 29.98 in 10.0 mi NW 2.3 mph - N/A   Clear
7:58 AM 63.9 °F 61.9 °F 93% 29.99 in 10.0 mi Calm Calm - N/A   Clear
8:58 AM 70.9 °F 65.5 °F 83% 30.00 in 10.0 mi ESE 2.3 mph - 0.00 in   Light Drizzle
9:09 AM 73.4 °F 64.4 °F 73% 30.03 in 10.0 mi SE 2.3 mph - N/A   Clear
9:58 AM 74.1 °F 63.9 °F 70% 30.02 in 10.0 mi Variable 3.5 mph - 0.00 in   Clear
10:38 AM 75.2 °F 64.4 °F 69% 30.05 in 10.0 mi Calm Calm - N/A   Mostly Cloudy
10:58 AM 75.2 °F 64.4 °F 69% 30.03 in 10.0 mi South 3.5 mph - N/A   Mostly Cloudy
11:58 AM 75.7 °F 64.2 °F 67% 30.02 in 10.0 mi Variable 2.3 mph - N/A   Overcast
12:48 PM 73.4 °F 64.4 °F 73% 30.02 in 10.0 mi NW 11.5 mph - N/A   Overcast
12:58 PM 73.8 °F 65.1 °F 74% 29.99 in 10.0 mi NNW 10.4 mph - N/A   Overcast
1:13 PM 73.4 °F 64.4 °F 73% 30.01 in 10.0 mi NNW 9.2 mph - N/A   Overcast
1:58 PM 74.3 °F 65.7 °F 74% 29.97 in 10.0 mi NW 6.9 mph - N/A   Overcast
2:33 PM 75.2 °F 66.2 °F 73% 29.99 in 10.0 mi Variable 1.2 mph - N/A   Overcast
2:58 PM 75.2 °F 66.2 °F 73% 29.97 in 10.0 mi Variable 2.3 mph - N/A   Overcast
3:08 PM 75.2 °F 66.2 °F 73% 29.99 in 10.0 mi Variable 2.3 mph - N/A   Overcast
3:23 PM 75.2 °F 66.2 °F 73% 29.99 in 10.0 mi SE 2.3 mph - N/A   Overcast
3:58 PM 73.4 °F 66.2 °F 78% 29.97 in 10.0 mi NNW 6.9 mph - N/A   Overcast
4:18 PM 73.4 °F 66.2 °F 78% 30.00 in 10.0 mi NNW 5.8 mph - N/A   Mostly Cloudy
4:23 PM 73.4 °F 66.2 °F 78% 30.00 in 10.0 mi NNW 5.8 mph - N/A   Mostly Cloudy
4:48 PM 73.4 °F 66.2 °F 78% 30.00 in 10.0 mi NNW 4.6 mph - N/A   Scattered Clouds
4:53 PM 73.4 °F 66.2 °F 78% 30.00 in 10.0 mi North 4.6 mph - N/A   Mostly Cloudy
4:58 PM 73.6 °F 66.4 °F 78% 29.98 in 10.0 mi North 4.6 mph - N/A   Mostly Cloudy
5:23 PM 73.4 °F 66.2 °F 78% 30.00 in 10.0 mi NE 2.3 mph - N/A   Mostly Cloudy
5:32 PM 73.4 °F 66.2 °F 78% 30.01 in 10.0 mi Calm Calm - N/A   Light Drizzle
5:37 PM 73.4 °F 66.2 °F 78% 30.01 in 10.0 mi Variable 1.2 mph - N/A Rain Light Rain
5:49 PM 73.4 °F 66.2 °F 78% 30.01 in 10.0 mi NNW 2.3 mph - N/A   Mostly Cloudy
5:58 PM 72.9 °F 66.7 °F 81% 29.99 in 10.0 mi NE 2.3 mph - 0.00 in   Overcast
6:58 PM 71.6 °F 66.9 °F 85% 30.00 in 10.0 mi NNE 2.3 mph - N/A   Overcast
7:43 PM 71.6 °F 66.2 °F 83% 30.04 in 10.0 mi North 5.8 mph - N/A   Scattered Clouds
7:48 PM 71.6 °F 66.2 °F 83% 30.04 in 10.0 mi North 5.8 mph - N/A   Mostly Cloudy
7:53 PM 71.6 °F 66.2 °F 83% 30.04 in 10.0 mi North 4.6 mph - N/A   Mostly Cloudy
7:58 PM 70.9 °F 66.6 °F 86% 30.02 in 10.0 mi NNW 3.5 mph - N/A   Mostly Cloudy
8:23 PM 71.6 °F 66.2 °F 83% 30.04 in 10.0 mi North 2.3 mph - N/A   Overcast
8:43 PM 71.6 °F 66.2 °F 83% 30.04 in 10.0 mi North 2.3 mph - N/A   Overcast
8:48 PM 69.8 °F 66.2 °F 88% 30.04 in 10.0 mi North 2.3 mph - N/A   Overcast
8:58 PM 71.6 °F 66.2 °F 83% 30.02 in 10.0 mi North 2.3 mph - N/A   Overcast
9:03 PM 69.8 °F 66.2 °F 88% 30.04 in 10.0 mi North 1.2 mph - N/A   Overcast
9:18 PM 69.8 °F 66.2 °F 88% 30.04 in 10.0 mi Calm Calm - N/A   Overcast
9:23 PM 69.8 °F 66.2 °F 88% 30.04 in 10.0 mi Calm Calm - N/A   Mostly Cloudy
9:58 PM 68.2 °F 65.7 °F 92% 30.02 in 9.0 mi Calm Calm - N/A   Clear
10:58 PM 65.5 °F 64.0 °F 95% 30.02 in 10.0 mi WNW 2.3 mph - N/A   Clear
11:58 PM 66.2 °F 64.8 °F 95% 30.02 in 10.0 mi NW 3.5 mph - N/A   Clear